Back to catalog

STARLINK-34788

AliveCommunicationsSSO
NORAD 65056·PAYLOAD·🇺🇸 United States

Launched Jul 31, 2025 from Vandenberg Space Force Base

Loading…

Next Passes (next 24 hours)

TLE

FreshSource: CelesTrak SupGP

Epoch: Sep 14, 2026, 21:12 UTC

1 65056C 25165A   26257.88381944  .02081800  00000+0  84484-1 0  2572
2 65056  97.2846 329.1808 0001822  91.1035 302.9747 15.23628698    16

Track STARLINK-34788 in real time with AllMySat

Download on the App Store